This is the latest recevied weather packets stored in our database for station/object IQ5LI-10. If no packets are shown the sender has not sent any weather packets the latest 10 day(s).
| Time | Temp. | Humidity | Pressure | Rain* | Wind** | Luminosity | Snow |
|---|---|---|---|---|---|---|---|
| 1777832245 | 27.22° C | 36% | 1019.7 hPa | - | - | - | - |
| 1777830441 | 27.22° C | 35% | 1019.6 hPa | - | - | - | - |
| 1777828635 | 27.22° C | 35% | 1019.7 hPa | - | - | - | - |
| 1777805171 | 26.67° C | 36% | 1022.3 hPa | - | - | - | - |
| 1777799757 | 26.11° C | 37% | 1022.3 hPa | - | - | - | - |
| 1777736585 | 26.67° C | 33% | 1023.3 hPa | - | - | - | - |
| 1777725752 | 26.11° C | 33% | 1024.8 hPa | - | - | - | - |
| 1777723946 | 26.11° C | 33% | 1025.1 hPa | - | - | - | - |
| 1777722141 | 25.56° C | 33% | 1025.4 hPa | - | - | - | - |
| 1777720335 | 25.56° C | 33% | 1025.8 hPa | - | - | - | - |
| 1777718530 | 25.56° C | 33% | 1026.2 hPa | - | - | - | - |
| 1777714919 | 25° C | 33% | 1026.8 hPa | - | - | - | - |
| 1777713114 | 25° C | 33% | 1026.8 hPa | - | - | - | - |
| 1777711309 | 25° C | 33% | 1026.9 hPa | - | - | - | - |
| 1777706513 | 25° C | 34% | 1027.2 hPa | - | - | - | - |
| 1777704708 | 25° C | 34% | 1027.3 hPa | - | - | - | - |
| 1777702903 | 25° C | 34% | 1027.3 hPa | - | - | - | - |
| 1777699294 | 25° C | 34% | 1027.2 hPa | - | - | - | - |
| 1777697490 | 25° C | 34% | 1027.1 hPa | - | - | - | - |
| 1777695685 | 25° C | 34% | 1027.1 hPa | - | - | - | - |
| 1777693880 | 25° C | 34% | 1027.1 hPa | - | - | - | - |
| 1777692076 | 25° C | 34% | 1027 hPa | - | - | - | - |
| 1777690271 | 25.56° C | 34% | 1027.1 hPa | - | - | - | - |
| 1777677639 | 26.11° C | 34% | 1027.2 hPa | - | - | - | - |
| 1777675834 | 26.11° C | 34% | 1027.1 hPa | - | - | - | - |
* Rain since midnight (hover to see other rain measurements)
** Current wind speed in m/s (hover to see current wind gust speed)